Regional Weather Roundup
Issued by NWS

Home | Current Version | Previous Version | Text Only | Print | Product List | Glossary On
Versions: 1 2 3 4 5 6 7 8 9 10 11 12 13 14 15 16 17 18 19 20 21 22 23 24 25 26 27 28 29 30 31 32 33 34 35 36 37 38 39 40 41 42 43 44 45 46 47 48 49 50
000
ASUS43 KOAX 062110
RWRNE

WEATHER ROUNDUP FOR NEBRASKA
NATIONAL WEATHER SERVICE OMAHA NE
400 PM CDT FRI MAY 06 2016

NOTES: SATELLITE DATA IS BEING USED TO AUGMENT CLOUD COVER ABOVE
       12000 FEET.
       "FAIR" INDICATES FEW OR NO CLOUDS BELOW 12,000 FEET WITH NO
       SIGNIFICANT WEATHER AND/OR OBSTRUCTIONS TO VISIBILITY.

  * THESE STATIONS DO NOT REPORT WEATHER SUCH AS RAIN...SNOW OR FOG.

NEZ001>004-019>022-054>056-062200-
NEBRASKA PANHANDLE

CITY           SKY/WX    TMP DP  RH WIND       PRES   REMARKS
SCOTTSBLUFF    CLOUDY    78  45  30 E17       29.89F
ALLIANCE       MOSUNNY   82  47  29 SE14      29.91F
CHADRON        PTSUNNY   80  51  36 NE20G25   29.91S
KIMBALL        CLOUDY    79  42  27 SE16      29.92F
SIDNEY         SUNNY     82  46  28 SE17G23   29.91F
$$

NEZ057>060-069>072-079>082-062200-
SOUTHWEST NEBRASKA

CITY           SKY/WX    TMP DP  RH WIND       PRES   REMARKS
NORTH PLATTE   MOSUNNY   81  51  35 SE13      29.89F
IMPERIAL       SUNNY     85  47  26 SE17      29.87F
MCCOOK         SUNNY     83  51  33 S14       29.88F
OGALLALA       SUNNY     82  45  27 SE13      29.88F
$$

NEZ005>010-023>029-035>040-094-062200-
NORTH CENTRAL NEBRASKA

CITY           SKY/WX    TMP DP  RH WIND       PRES   REMARKS
VALENTINE      CLOUDY    88  39  17 SW12      29.86F
AINSWORTH      MOSUNNY   85  46  25 S15       29.87F
BROKEN BOW     CLOUDY    83  52  34 S17G28    29.90F
O`NEILL        SUNNY     84  49  29 S13G20    29.88F
ORD            MOSUNNY    2  32 100 S18G25    29.88F WCI -19
THEDFORD       CLOUDY    86  46  24 S18       29.90F
$$

NEZ041-046>049-061>064-073>077-083>087-062200-
SOUTH CENTRAL NEBRASKA

CITY           SKY/WX    TMP DP  RH WIND       PRES   REMARKS
GRAND ISLAND   SUNNY     83  49  30 S21G26    29.91F
AURORA         SUNNY     83  46  27 S20       29.92F
HASTINGS       SUNNY     82  50  32 S16G24    29.91F
HEBRON         PTSUNNY   84  43  23 S18G25    29.93F
HOLDREGE       CLOUDY    80  49  33 S17G25    29.91F
KEARNEY *      CLOUDY    81  48  32 S22G29    29.92F
YORK           SUNNY     84  45  24 S21G28    29.92F
$$

NEZ011>018-030>034-042>045-062200-
NORTHEAST NEBRASKA

CITY           SKY/WX    TMP DP  RH WIND       PRES   REMARKS
NORFOLK        SUNNY     86  47  25 SW17G24   29.87F
ALBION         SUNNY     83  47  28 SW18G24   29.89F
BLAIR          SUNNY     88  42  19 SW16G23   29.90F
COLUMBUS *     SUNNY     88  46  23 SW18      29.90F
FREMONT        SUNNY     85  44  23 SW12G22   29.90F
TEKAMAH        SUNNY     87  43  21 SW23G31   29.87F
WAYNE          SUNNY     85  51  31 SW18G24   29.87F
$$

NEZ050>053-065>068-078-088>093-062200-
SOUTHEAST NEBRASKA

CITY           SKY/WX    TMP DP  RH WIND       PRES   REMARKS
LINCOLN        CLOUDY    88  41  19 S17       29.91F
OMAHA EPPLEY   PTSUNNY   88  42  20 SW12      29.89F
BEATRICE       MOSUNNY   83  43  24 S17G25    29.94F
FALLS CITY     SUNNY     84  48  28 SW15G24   29.94F
NEBRASKA CITY  SUNNY     84  38  20 SW17G24   29.94F
PLATTSMOUTH    SUNNY     87  38  17 S15G25    29.92F
$$

NEZ044-045-051>053-067-062200-
OMAHA AREA

CITY           SKY/WX    TMP DP  RH WIND       PRES   REMARKS
OMAHA EPPLEY   PTSUNNY   88  42  20 SW12      29.89F
BLAIR          SUNNY     88  42  19 SW16G23   29.90F
FREMONT        SUNNY     85  44  23 SW12G22   29.90F
MILLARD        SUNNY     86  42  21 SW10G18   29.90F
OFFUTT AFB     SUNNY     86  41  20 S15       29.90F
PLATTSMOUTH    SUNNY     87  38  17 S15G25    29.92F
WAHOO          FAIR      88  40  18 SW17G24   29.90F
$$




USA.gov is the U.S. government's official web portal to all federal, state and local government web resources and services.